Location: Igon
(43.1667°N, 0.2333°W)
Time: 06:15:48
(UTC+00:00)

NOAA 16 DEB - Pass Details

Date: 15 June 2021
Orbit: 682 x 809 km, 98.9° (Epoch: 03 August)

Event Time Altitude Azimuth Distance (km) Brightness Sun altitude
Rises 03:06:57 0° 140° (SE) 3,292 ? -11.0°
Reaches altitude 10° 03:09:25 10° 132° (SE) 2,377 ? -10.7°
Maximum altitude 03:14:12 36° 67° (ENE) 1,257 ? -10.1°
Drops below altitude 10° 03:19:02 10° 2° (N) 2,407 ? -9.5°
Sets 03:21:32 0° 354° (N) 3,339 ? -9.2°
